{"data":{"norad_id":63496,"intl_designator":"2025-071D","name":"STARLINK-33829","alt_names":[],"object_type":"PAYLOAD","status":"ACTIVE","operator":null,"country":"US","launch_date":"2025-04-07","launch_site_code":"AFWTR","launch_vehicle":null,"mission":null,"orbit_class":"UNKNOWN","rcs_meters":null,"size_class":null,"mass_kg":null,"dimensions":null,"purposes":["comms"],"wikipedia_slug":null,"has_3d_model":false,"image_url":null,"decayed_at":null,"tle_current":{"epoch":"2026-05-25T00:04:46.930080Z","epoch_age_seconds":71290,"freshness":"FRESH","line1":"1 63496U 25071D   26145.00332095  .00018317  00000+0  62879-3 0  9997","line2":"2 63496  53.1591 145.4703 0001591  92.4430 267.6753 15.30212598 64390","mean_motion":15.30212598,"eccentricity":0.0001591,"inclination_deg":53.1591,"raan_deg":145.4703,"arg_perigee_deg":92.443,"mean_anomaly_deg":267.6753,"bstar":0.00062879,"rev_number":6439,"period_min":94.104570951912,"perigee_km":474.08709199052,"apogee_km":476.26781664988,"semimajor_km":6853.3144543202,"source":"CELESTRAK","updated_at":"2026-05-25T13:38:20.012093Z"}}}